Regional Weather Roundup
Issued by NWS

Home | Current Version | Previous Version | Text Only | Print | Product List | Glossary On
Versions: 1 2 3 4 5 6 7 8 9 10 11 12 13 14 15 16 17 18 19 20 21 22 23 24 25 26 27
000
ASUS45 KBOU 151407
RWRCO

WEATHER ROUNDUP FOR COLORADO
NATIONAL WEATHER SERVICE DENVER/BOULDER CO
800 AM MDT TUE AUG 15 2017

NOTE: "FAIR" INDICATES FEW OR NO CLOUDS BELOW 12000 FEET WITH NO
SIGNIFICANT WEATHER AND/OR OBSTRUCTIONS TO VISIBILITY.

COZ001>005-013-030-031-151500-
...NORTHWEST COLORADO...

CITY           SKY/WX    TMP DP  RH WIND       PRES   REMARKS
CRAIG          FAIR      57  51  80 S6        30.03S
HAYDEN         FAIR      53  47  79 E6        30.07R
MEEKER         FAIR      54  49  83 CALM      30.03R
RABBIT EARS PA PTSUNNY   50  36  57 W5        30.28R
STEAMBOAT SPGS FAIR      49  47  92 CALM      30.06R
WALDEN         FAIR      43  39  87 E3        30.15S
$$

COZ006>008-011-151500-
...WEST CENTRAL VALLEYS...

CITY           SKY/WX    TMP DP  RH WIND       PRES   REMARKS
GRAND JUNCTION FAIR      68  50  52 SE6       29.91R
MONTROSE       CLOUDY    69  37  30 VRB5      30.03R
EAGLE          FAIR      52  43  71 E5        30.10R
RIFLE          FAIR      56  48  74 CALM      29.98S
DELTA          FAIR      68  41  37 NE7       29.98R
NUCLA          NOT AVBL
$$

COZ017>023-064>068-151500-
...SOUTHWEST COLORADO...

CITY           SKY/WX    TMP DP  RH WIND       PRES   REMARKS
DURANGO        FAIR      55  43  63 CALM      30.13R
CORTEZ         FAIR      60  42  51 NE8       30.06R
PAGOSA SPRINGS FAIR      58  43  57 CALM      30.19R
TELLURIDE      PTSUNNY   52  37  56 CALM      30.27R
WOLF CREEK PAS FAIR      41  37  87 S6        30.46S
$$

COZ009-010-012-014-032>034-037-058>063-151500-
...CENTRAL COLORADO...

CITY           SKY/WX    TMP DP  RH WIND       PRES   REMARKS
ASPEN          FAIR      54  42  64 S6        30.11R
BUENA VISTA    FAIR      52  42  70 NW6       30.17R
COPPER MTN     FAIR      52  30  43 SW7G16    30.40R
BERTHOUD PASS  FAIR      41  37  87 W9        30.41S
COTTONWOOD PAS FAIR      54  39  58 E8        30.27R
GUNNISON       FAIR      47  43  86 CALM      30.19R
KREMMLING      FAIR      50  46  87 CALM      30.14S
LEADVILLE      FAIR      47  40  76 CALM      30.25R
SALIDA         FAIR      54  45  71 NW3       30.22R
SUNLIGHT       FAIR      43  34  70 SW9       30.33R
WILKERSON PASS FAIR      46  34  61 SW8       30.38S
$$

COZ069>075-151500-
...SAN LUIS VALLEY/SANGRE DE CRISTO MOUNTAINS...

CITY           SKY/WX    TMP DP  RH WIND       PRES   REMARKS
ALAMOSA        FAIR      52  47  83 CALM      30.15R
DEL NORTE      FAIR      56  42  59 W10       30.17S
LA VETA PASS   NOT AVBL
SAGUACHE       FAIR      52  41  66 NW8       30.18R
$$

COZ035-036-038>040-151500-
...NORTHERN COLORADO FRONT RANGE...

CITY           SKY/WX    TMP DP  RH WIND       PRES   REMARKS
DENVER INTL AP PTSUNNY   60  52  74 W7        29.95R
DMNS CITY PARK   N/A     64  49  57 SE6       29.94S
AURORA         PTSUNNY   60  51  73 SW6       29.96S
FRONT RANGE AP FAIR      61  54  77 SW3       29.97R
ERIE MUNI ARPT FAIR      62  55  75 CALM      29.96S
BOULDER MUN AP FAIR      64  48  55 S3        29.93S
CENTENNIAL     FAIR      64  50  60 SW7       29.97S
BROOMFIELD     MOSUNNY   66  52  59 CALM      29.96S
FORT COLLINS   FAIR      64  54  69 NE6       29.93R
LONGMONT       FAIR      66  52  60 CALM      29.93F
$$

COZ041-046-047-076>085-087-088-151500-
...PIKES PEAK/PALMER DIVIDE AND SOUTHERN FOOTHILLS...

CITY           SKY/WX    TMP DP  RH WIND       PRES   REMARKS
COLO. SPRINGS  PTSUNNY   63  58  83 N5        30.01S
A. F. ACADEMY  FAIR      56  55  96 N7        30.02R
SCHRIEVER AFB  FAIR      64  57  77 W3        30.01R
CHEYENNE MTN   PTSUNNY   61  54  77 CALM      30.00R
ELLICOTT       FAIR     N/A N/A N/A N3        29.99R
FALCON         FAIR      61  58  90 W6        30.06S
FORT CARSON    FAIR      63  56  78 CALM      29.98R
LIMON          FAIR      61  57  87 N7        29.96R
MONUMENT HILL  FAIR      54  52  94 CALM      30.07S
CANON CITY     CLOUDY    66  52  59 W10       29.95S
WALSENBURG     NOT AVBL
TRINIDAD       FAIR      62  51  67 NW7       29.98S
$$

COZ042>045-048>051-090-091-151500-
...NORTHEAST COLORADO...

CITY           SKY/WX    TMP DP  RH WIND       PRES   REMARKS
GREELEY ARPT   FAIR      63  57  81 SE5       29.94R
AKRON          FAIR      65  57  75 NE7       29.91S
BURLINGTON     PTSUNNY   65  63  93 NW3       29.90R
WRAY           NOT AVBL
YUMA           CLOUDY    63  48  59 NE7       29.89S
STERLING       CLOUDY    66  63  88 E7        29.89S
HOLYOKE        CLOUDY    68  63  83 E7        29.89S
FORT MORGAN    FAIR      66  58  75 NE10      29.92S
$$

COZ086-089-092>099-151500-
...SOUTHEAST COLORADO...

CITY           SKY/WX    TMP DP  RH WIND       PRES   REMARKS
PUEBLO         FAIR      67  61  81 W7        29.91S
LA JUNTA       FAIR      66  62  87 W8        29.87R
LAMAR          FAIR      66  59  78 CALM      29.83R
SPRINGFIELD      N/A     66  59  78 S14       29.89R
$$




USA.gov is the U.S. government's official web portal to all federal, state and local government web resources and services.